Location: Santa Clara
(37.3540°N, 121.9540°W)
Time: 01:43:20
(UTC-07:00)

Hubble Space Telescope - Pass Details

Date: 26 May 2024
Orbit: 511 x 514 km, 28.5° (Epoch: 13 June)

Event Time Altitude Azimuth Distance (km) Brightness Sun altitude
Rises 22:15:18 0° 240° (WSW) 2,608 4.4 -19.0°
Reaches altitude 10° 22:17:55 10° 224° (SW) 1,722 3.3 -19.3°
Enters shadow 22:18:46 14° 214° (SW) 1,486 2.9 -19.4°
